Regional Weather Roundup
Issued by NWS

Home | Current Version | Previous Version | Text Only | Print | Product List | Glossary On
Versions: 1 2 3 4 5 6 7 8 9 10 11 12 13 14 15 16 17 18 19 20 21 22 23 24 25 26 27 28 29 30 31 32 33 34 35 36 37 38 39 40 41 42 43 44 45 46 47 48 49 50
000
ASUS45 KSLC 212210
RWRUT

UTAH REGIONAL WEATHER ROUNDUP
NATIONAL WEATHER SERVICE SALT LAKE CITY UT
300 PM MST TUE FEB 21 2017

UTZ001>011-023>025-212300-

NORTHERN UTAH

CITY           SKY/WX    TMP DP  RH WIND       PRES   REMARKS
BRIGHAM CITY     N/A     59  39  48 S20G25    29.86F
HILL AFB       PTSUNNY   61  32  34 SW32G38   29.88F
LOGAN          LGT RAIN  58  35  42 SW24G46   29.83F
OGDEN          MOSUNNY   62  33  33 S28G44    29.87F
SALT LAKE CITY PTSUNNY   64  34  32 S31G45    29.90F
TOOELE VALLEY  MOSUNNY   61  37  41 S35G43    29.90F
WENDOVER       CLOUDY    61  28  29 NW29G38   29.90R
HEBER CITY     CLOUDY    55  28  35 SW15G30   29.96F
WEST JORDAN    SUNNY     64  45  48 S32G41    29.93F

$$

UTZ011>015-024>027-212300-

CENTRAL/NORTHEAST UTAH

CITY           SKY/WX    TMP DP  RH WIND       PRES   REMARKS
PROVO AIRPORT  PTSUNNY   61  36  39 SW23G32   29.99F
MOAB/CANYONLAN PTSUNNY   62  38  40 SW14      30.09F
DELTA          MOSUNNY   59  32  36 S39G47    30.01F
PRICE          CLOUDY    47  40  76 S3        30.11F
RICHFIELD      SUNNY     63  21  20 SW21G28   30.07F
ROOSEVELT      CLOUDY    55  36  47 SW14G22   30.07F
VERNAL         CLOUDY    53  35  50 S12       30.05F

$$

UTZ013>016-019>022-027-212300-

SOUTHERN UTAH

CITY           SKY/WX    TMP DP  RH WIND       PRES   REMARKS
BRYCE CANYON   CLOUDY    41  31  67 SW15      30.26F
CEDAR CITY     CLOUDY    53  34  48 SW23G31   30.15F
MILFORD        PTSUNNY   61  35  37 S30G44    30.08F
ST GEORGE      MOCLDY    63  44  50 CALM      30.18F
HANKSVILLE     PTSUNNY   63  34  34 SW14G25   30.10F
KANAB          PTSUNNY   59  41  51 SW9G17    30.26F
BLANDING       MOSUNNY   57  36  45 S12G17    30.31F

$$

REGIONAL REPORTS     COLORADO/ARIZONA

CITY           SKY/WX    TMP DP  RH WIND       PRES   REMARKS
CRAIG, CO      CLOUDY    54  29  38 SW20G30   30.08S
GRAND JUNCTION CLOUDY    60  39  45 NW13      30.12F
RIFLE, CO      CLOUDY    58  34  40 W10       30.11F
MONTROSE, CO   CLOUDY    59  29  31 SW14      30.17F
CORTEZ, CO     SUNNY     58  34  40 SW8       30.26F
COLORADO CITY    N/A     59  39  47 SW16G22   30.26F
PAGE, AZ       MOSUNNY   63  38  39 VRB3      30.18F
GRAND CANYON   PTSUNNY   56  40  55 SW14G22   30.31F
KINGMAN, AZ    LGT RAIN  56  50  80 S21       30.25F
FLAGSTAFF, AZ  MOSUNNY   56  36  47 W12G24    30.32F

$$

REGIONAL REPORTS    NEVADA/IDAHO/WYOMING

CITY           SKY/WX    TMP DP  RH WIND       PRES   REMARKS
LAS VEGAS, NV  CLOUDY    68  30  24 SW17G28   30.14F
ELY, NY        PTSUNNY   51  30  44 S21G39    29.99F
ELKO, NV       FLURRIES  37  32  82 W18G29    30.03R WCI  27
POCATELLO, ID  CLOUDY    39  33  79 SW15      29.97R WCI  31
BURLEY, ID     LGT RAIN  45  31  58 W26G36    29.94F
FORT BRIDGER,    N/A     46  29  52 SW18G26   29.97F
EVANSTON, WY   CLOUDY    43  28  55 SW24      29.93F
ROCK SPRINGS,  CLOUDY    50  28  42 SW25G35   29.92F
KEMMERER, WY     N/A     43  30  61 SW22G32   29.92F

$$



USA.gov is the U.S. government's official web portal to all federal, state and local government web resources and services.